7 * 24
多渠道服务支持
QIANFAN-102是中国于2025年10月17日发射的低轨通信卫星,隶属于G60千帆星座(中国版“星链”项目)。该星座由上海垣信卫星科技主导建设,计划构建超1.4万颗低轨宽频多媒体卫星网络,目标2025年实现区域组网、2030年完成全球覆盖。QIANFAN-102将为星座提供稳定高速的卫星互联网服务,助力填补偏远地区数字鸿沟,推动我国低轨卫星通信产业发展。
中国
(CN)
| 数据来源 | 国际轨道数据 | AOE轨道数据 |
| 星历时间 | 2026-05-24T10:35:38+0800 1天前 查看轨道信息 | 2026-05-24T01:00:00+0800 1天前 查看轨道信息 |
| 半长轴 | 7446.697km | 7446.7km |
| 偏心率 | 0.0002064 | 0.0002057 |
| 轨道倾角 | 89.002° | 89.002° |
| 近地点辐角 | 73.192° | 73.795° |
| 升交点赤经 | 45.533° | 45.572° |
| 平近点角 | 286.946° | 143.277° |
| 近地点 | 1067.023km | 1067.031km |
| 远地点 | 1070.097km | 1070.095km |
| 周期 | 106.587分钟 | 106.587分钟 |
| 每日圈数 | 13.510059 | 13.510052 |